CMP318 MROC-MPTO

Flight info

Callsign CMP318
Flight time 1h 29m
Altitude 31000
Route TEJAR3M LIO UA317 BUFEO DCT BITOR VUMAN2
Aircraft B738/M-SDE2E3FGHIRWXY/LB1

Departure

Time 2026-05-06 00:58
Airport Juan Santamaría International Airport (MROC)

Arrival

Time 2026-05-06 02:27
Airport Tocumen International Airport (MPTO)
Time Latitude Longitude Altitude Speed Heading
2026-05-06 00:40 9.99758 -84.20303 3012 ft 0 kts 339°
2026-05-06 00:49 9.99747 -84.20299 3011 ft 2 kts 339°
2026-05-06 00:50 9.99732 -84.20293 3011 ft 2 kts 339°
2026-05-06 00:50 9.99723 -84.20290 3011 ft 1 kts 322°
2026-05-06 00:50 9.99716 -84.20277 3011 ft 2 kts 272°
2026-05-06 00:50 9.99717 -84.20269 3011 ft 0 kts 246°
2026-05-06 00:51 9.99719 -84.20263 3011 ft 0 kts 248°
2026-05-06 00:52 9.99717 -84.20270 3011 ft 3 kts 248°
2026-05-06 00:53 9.99703 -84.20308 3011 ft 7 kts 250°
2026-05-06 00:53 9.99678 -84.20375 3011 ft 12 kts 249°
2026-05-06 00:53 9.99643 -84.20470 3011 ft 16 kts 249°
2026-05-06 00:53 9.99596 -84.20593 3011 ft 20 kts 249°
2026-05-06 00:54 9.99542 -84.20739 3011 ft 23 kts 249°
2026-05-06 00:54 9.99479 -84.20904 3011 ft 26 kts 249°
2026-05-06 00:54 9.99409 -84.21091 3011 ft 30 kts 249°
2026-05-06 00:54 9.99334 -84.21292 3011 ft 30 kts 249°
2026-05-06 00:55 9.99258 -84.21495 3011 ft 29 kts 249°
2026-05-06 00:55 9.99190 -84.21677 3011 ft 25 kts 249°
2026-05-06 00:55 9.99132 -84.21835 3011 ft 22 kts 250°
2026-05-06 00:55 9.99098 -84.21971 3011 ft 17 kts 277°
2026-05-06 00:56 9.99099 -84.22085 3011 ft 14 kts 251°
2026-05-06 00:56 9.99061 -84.22176 3011 ft 13 kts 230°
2026-05-06 00:56 9.98986 -84.22192 3011 ft 11 kts 164°
2026-05-06 00:56 9.98920 -84.22168 3011 ft 8 kts 141°
2026-05-06 00:57 9.98923 -84.22118 3011 ft 7 kts 65°
2026-05-06 00:57 9.98950 -84.22057 3011 ft 22 kts 67°
2026-05-06 00:57 9.99101 -84.21655 3011 ft 98 kts 69°
2026-05-06 00:57 9.99428 -84.20779 3012 ft 161 kts 69°
2026-05-06 00:58 9.99839 -84.19641 3499 ft 175 kts 70°
2026-05-06 00:58 10.00230 -84.18469 4134 ft 184 kts 69°
2026-05-06 00:58 10.00741 -84.17234 4613 ft 199 kts 66°
2026-05-06 00:58 10.01292 -84.15848 4828 ft 221 kts 68°
2026-05-06 00:59 10.01854 -84.14366 5407 ft 228 kts 70°
2026-05-06 00:59 10.02124 -84.12784 6076 ft 233 kts 94°
2026-05-06 00:59 10.01662 -84.11220 6703 ft 240 kts 120°
2026-05-06 00:59 10.00507 -84.09918 6982 ft 264 kts 141°
2026-05-06 01:00 9.98998 -84.08755 7434 ft 278 kts 141°
2026-05-06 01:00 9.97472 -84.07536 8036 ft 288 kts 141°
2026-05-06 01:00 9.95895 -84.06274 8804 ft 290 kts 141°
2026-05-06 01:00 9.94323 -84.05021 9554 ft 293 kts 141°
2026-05-06 01:01 9.92709 -84.03734 10287 ft 298 kts 141°
2026-05-06 01:01 9.91060 -84.02419 10689 ft 314 kts 141°
2026-05-06 01:01 9.89321 -84.01035 11415 ft 318 kts 141°
2026-05-06 01:01 9.87608 -83.99672 12091 ft 324 kts 141°
2026-05-06 01:02 9.85858 -83.98280 12817 ft 327 kts 141°
2026-05-06 01:02 9.84118 -83.96849 13521 ft 331 kts 136°
2026-05-06 01:02 9.82773 -83.94997 14170 ft 334 kts 112°
2026-05-06 01:02 9.82351 -83.92728 14911 ft 335 kts 86°
2026-05-06 01:03 9.82731 -83.90419 15682 ft 335 kts 77°
2026-05-06 01:03 9.83188 -83.88074 16278 ft 342 kts 80°
2026-05-06 01:03 9.83565 -83.85700 16967 ft 344 kts 81°
2026-05-06 01:03 9.83940 -83.83309 17597 ft 348 kts 81°
2026-05-06 01:04 9.84323 -83.80895 18237 ft 351 kts 81°
2026-05-06 01:04 9.84706 -83.78449 18856 ft 354 kts 81°
2026-05-06 01:04 9.85092 -83.75957 19465 ft 357 kts 81°
2026-05-06 01:04 9.85475 -83.73480 20048 ft 360 kts 81°
2026-05-06 01:05 9.85859 -83.70995 20612 ft 363 kts 81°
2026-05-06 01:05 9.86252 -83.68446 21168 ft 366 kts 81°
2026-05-06 01:05 9.86646 -83.65895 21702 ft 369 kts 81°
2026-05-06 01:05 9.87042 -83.63323 22221 ft 372 kts 81°
2026-05-06 01:06 9.87442 -83.60728 22727 ft 375 kts 81°
2026-05-06 01:06 9.87844 -83.58113 23218 ft 378 kts 81°
2026-05-06 01:06 9.88245 -83.55505 23692 ft 380 kts 81°
2026-05-06 01:06 9.88655 -83.52834 24159 ft 383 kts 81°
2026-05-06 01:07 9.89066 -83.50163 24613 ft 386 kts 81°
2026-05-06 01:07 9.89476 -83.47486 25051 ft 388 kts 81°
2026-05-06 01:07 9.89889 -83.44795 25478 ft 391 kts 81°
2026-05-06 01:07 9.90310 -83.42047 25898 ft 393 kts 81°
2026-05-06 01:08 9.90727 -83.39328 26301 ft 395 kts 81°
2026-05-06 01:08 9.91150 -83.36567 26697 ft 398 kts 81°
2026-05-06 01:08 9.91574 -83.33798 27079 ft 400 kts 81°
2026-05-06 01:08 9.91999 -83.31017 27456 ft 402 kts 81°
2026-05-06 01:09 9.92427 -83.28223 27820 ft 404 kts 81°
2026-05-06 01:09 9.92859 -83.25394 28177 ft 407 kts 81°
2026-05-06 01:09 9.93292 -83.22559 28525 ft 409 kts 81°
2026-05-06 01:09 9.93726 -83.19713 28863 ft 411 kts 81°
2026-05-06 01:10 9.94165 -83.16840 29192 ft 413 kts 81°
2026-05-06 01:10 9.94604 -83.13956 29516 ft 415 kts 81°
2026-05-06 01:10 9.95041 -83.11089 29825 ft 417 kts 81°
2026-05-06 01:10 9.95483 -83.08183 30130 ft 419 kts 81°
2026-05-06 01:11 9.95789 -83.05261 30414 ft 421 kts 87°
2026-05-06 01:11 9.95723 -83.02313 30705 ft 422 kts 96°
2026-05-06 01:11 9.95188 -82.99393 30929 ft 424 kts 105°
2026-05-06 01:12 9.93349 -82.93689 30934 ft 422 kts 108°
2026-05-06 01:12 9.91627 -82.88210 30935 ft 417 kts 108°
2026-05-06 01:13 9.89892 -82.82758 30936 ft 416 kts 108°
2026-05-06 01:13 9.88107 -82.77182 30935 ft 416 kts 108°
2026-05-06 01:14 9.85434 -82.68853 30935 ft 416 kts 108°
2026-05-06 01:14 9.83637 -82.63265 30936 ft 416 kts 108°
2026-05-06 01:15 9.81846 -82.57702 30935 ft 416 kts 108°
2026-05-06 01:15 9.79967 -82.52162 30935 ft 416 kts 110°
2026-05-06 01:16 9.78047 -82.46677 30935 ft 416 kts 109°
2026-05-06 01:16 9.76129 -82.41147 30935 ft 416 kts 109°
2026-05-06 01:17 9.74211 -82.35627 30935 ft 416 kts 109°
2026-05-06 01:17 9.72300 -82.30123 30935 ft 416 kts 110°
2026-05-06 01:18 9.70383 -82.24606 30935 ft 416 kts 110°
2026-05-06 01:18 9.68486 -82.19147 30935 ft 416 kts 110°
2026-05-06 01:19 9.66570 -82.13640 30936 ft 416 kts 110°
2026-05-06 01:19 9.64651 -82.08125 30935 ft 416 kts 110°
2026-05-06 01:20 9.62734 -82.02620 30935 ft 416 kts 110°
2026-05-06 01:20 9.60816 -81.97116 30935 ft 416 kts 110°
2026-05-06 01:21 9.58886 -81.91579 30933 ft 416 kts 110°
2026-05-06 01:21 9.56962 -81.86063 30924 ft 416 kts 110°
2026-05-06 01:22 9.55047 -81.80576 30913 ft 416 kts 110°
2026-05-06 01:22 9.53125 -81.75073 30903 ft 416 kts 110°
2026-05-06 01:23 9.51192 -81.69539 30894 ft 416 kts 110°
2026-05-06 01:23 9.49288 -81.64093 30885 ft 416 kts 110°
2026-05-06 01:24 9.47368 -81.58603 30875 ft 416 kts 110°
2026-05-06 01:24 9.45448 -81.53117 30864 ft 416 kts 110°
2026-05-06 01:25 9.43520 -81.47611 30858 ft 416 kts 110°
2026-05-06 01:25 9.41584 -81.42084 30858 ft 416 kts 110°
2026-05-06 01:26 9.39651 -81.36571 30858 ft 416 kts 110°
2026-05-06 01:26 9.37753 -81.31158 30861 ft 416 kts 110°
2026-05-06 01:27 9.36731 -81.28247 30862 ft 416 kts 110°
2026-05-06 02:02 9.36328 -81.27098 30864 ft 416 kts 110°
2026-05-06 02:02 9.34409 -81.21632 30913 ft 416 kts 110°
2026-05-06 02:03 9.32477 -81.16133 30912 ft 416 kts 110°
2026-05-06 02:03 9.30541 -81.10626 30912 ft 416 kts 110°
2026-05-06 02:04 9.28601 -81.05107 30912 ft 416 kts 110°
2026-05-06 02:04 9.26665 -80.99603 30912 ft 416 kts 110°
2026-05-06 02:05 9.25721 -80.96858 30698 ft 410 kts 109°
2026-05-06 02:05 9.24816 -80.94164 30207 ft 405 kts 109°
2026-05-06 02:05 9.23920 -80.91499 29688 ft 400 kts 109°
2026-05-06 02:05 9.23029 -80.88866 29162 ft 396 kts 109°
2026-05-06 02:06 9.22141 -80.86244 28636 ft 392 kts 109°
2026-05-06 02:06 9.21262 -80.83651 28113 ft 389 kts 109°
2026-05-06 02:06 9.20385 -80.81063 27591 ft 387 kts 109°
2026-05-06 02:06 9.19514 -80.78495 27073 ft 390 kts 109°
2026-05-06 02:07 9.18649 -80.75944 26549 ft 386 kts 109°
2026-05-06 02:07 9.17776 -80.73373 26026 ft 382 kts 109°
2026-05-06 02:07 9.16921 -80.70853 25511 ft 379 kts 109°
2026-05-06 02:07 9.16073 -80.68355 25001 ft 375 kts 109°
2026-05-06 02:08 9.15233 -80.65881 24493 ft 371 kts 109°
2026-05-06 02:08 9.14409 -80.63456 23994 ft 368 kts 109°
2026-05-06 02:08 9.13578 -80.61011 23490 ft 364 kts 109°
2026-05-06 02:08 9.12763 -80.58612 22994 ft 361 kts 109°
2026-05-06 02:09 9.11956 -80.56238 22503 ft 358 kts 109°
2026-05-06 02:09 9.11142 -80.53846 22012 ft 362 kts 109°
2026-05-06 02:09 9.10321 -80.51433 21504 ft 360 kts 109°
2026-05-06 02:09 9.09523 -80.49088 21016 ft 356 kts 109°
2026-05-06 02:10 9.08718 -80.46722 20522 ft 353 kts 109°
2026-05-06 02:10 9.07923 -80.44385 20033 ft 350 kts 108°
2026-05-06 02:10 9.07141 -80.42089 19553 ft 346 kts 108°
2026-05-06 02:10 9.06388 -80.39798 19336 ft 334 kts 105°
2026-05-06 02:11 9.05873 -80.37575 19024 ft 328 kts 100°
2026-05-06 02:11 9.05476 -80.35323 18575 ft 325 kts 100°
2026-05-06 02:11 9.05050 -80.33068 18149 ft 322 kts 101°
2026-05-06 02:11 9.04627 -80.30878 17737 ft 320 kts 100°
2026-05-06 02:12 9.04217 -80.28708 17367 ft 315 kts 100°
2026-05-06 02:12 9.03809 -80.26541 17000 ft 317 kts 100°
2026-05-06 02:12 9.03394 -80.24334 16585 ft 319 kts 100°
2026-05-06 02:12 9.02980 -80.22138 16170 ft 316 kts 100°
2026-05-06 02:13 9.02573 -80.19978 15763 ft 313 kts 100°
2026-05-06 02:13 9.02169 -80.17832 15356 ft 310 kts 100°
2026-05-06 02:13 9.01781 -80.15769 14967 ft 308 kts 100°
2026-05-06 02:13 9.01394 -80.13718 14578 ft 305 kts 100°
2026-05-06 02:14 9.00999 -80.11618 14180 ft 303 kts 100°
2026-05-06 02:14 9.00608 -80.09545 13790 ft 305 kts 100°
2026-05-06 02:14 9.00205 -80.07407 13382 ft 306 kts 100°
2026-05-06 02:14 8.99817 -80.05351 12989 ft 303 kts 100°
2026-05-06 02:15 8.99423 -80.03263 12591 ft 301 kts 100°
2026-05-06 02:15 8.99032 -80.01187 12195 ft 298 kts 100°
2026-05-06 02:15 8.98668 -79.99260 11827 ft 296 kts 100°
2026-05-06 02:15 8.98290 -79.97260 11445 ft 294 kts 100°
2026-05-06 02:16 8.97907 -79.95232 11058 ft 292 kts 100°
2026-05-06 02:16 8.97540 -79.93285 10685 ft 290 kts 100°
2026-05-06 02:16 8.97162 -79.91284 10305 ft 295 kts 100°
2026-05-06 02:16 8.96785 -79.89294 9993 ft 289 kts 100°
2026-05-06 02:17 8.96419 -79.87362 9809 ft 281 kts 99°
2026-05-06 02:17 8.96052 -79.85416 9424 ft 279 kts 99°
2026-05-06 02:17 8.95689 -79.83500 9072 ft 277 kts 99°
2026-05-06 02:17 8.95304 -79.81609 8723 ft 275 kts 104°
2026-05-06 02:18 8.94737 -79.79788 8381 ft 273 kts 108°
2026-05-06 02:18 8.94128 -79.77984 8037 ft 271 kts 107°
2026-05-06 02:18 8.93540 -79.76173 7692 ft 269 kts 107°
2026-05-06 02:18 8.92958 -79.74385 7396 ft 266 kts 107°
2026-05-06 02:19 8.92387 -79.72629 7107 ft 262 kts 107°
2026-05-06 02:19 8.91819 -79.70885 6786 ft 260 kts 107°
2026-05-06 02:19 8.91257 -79.69156 6421 ft 260 kts 107°
2026-05-06 02:19 8.90693 -79.67422 6073 ft 259 kts 107°
2026-05-06 02:20 8.89580 -79.64001 5432 ft 256 kts 107°
2026-05-06 02:20 8.89031 -79.62315 5113 ft 254 kts 107°
2026-05-06 02:20 8.88491 -79.60594 4739 ft 254 kts 102°
2026-05-06 02:21 8.88392 -79.58835 4376 ft 252 kts 83°
2026-05-06 02:21 8.88552 -79.57111 4276 ft 240 kts 84°
2026-05-06 02:21 8.88673 -79.55466 4123 ft 228 kts 85°
2026-05-06 02:21 8.88787 -79.53899 4093 ft 224 kts 84°
2026-05-06 02:22 8.88969 -79.52309 4086 ft 228 kts 73°
2026-05-06 02:22 8.89783 -79.51002 4090 ft 222 kts 39°
2026-05-06 02:22 8.90987 -79.50125 3987 ft 206 kts 38°
2026-05-06 02:22 8.92029 -79.49165 3771 ft 197 kts 42°
2026-05-06 02:23 8.93027 -79.48261 3489 ft 192 kts 40°
2026-05-06 02:23 8.94036 -79.47374 3151 ft 191 kts 40°
2026-05-06 02:23 8.94989 -79.46539 3035 ft 176 kts 40°
2026-05-06 02:23 8.95894 -79.45751 2727 ft 165 kts 40°
2026-05-06 02:24 8.96769 -79.45028 2723 ft 167 kts 32°
2026-05-06 02:24 8.97781 -79.44435 2695 ft 165 kts 30°
2026-05-06 02:24 8.98734 -79.43868 2354 ft 159 kts 30°
2026-05-06 02:24 8.99698 -79.43291 1844 ft 161 kts 30°
2026-05-06 02:25 9.00668 -79.42709 1513 ft 165 kts 30°
2026-05-06 02:25 9.01621 -79.42137 1170 ft 156 kts 30°
2026-05-06 02:25 9.02525 -79.41590 991 ft 150 kts 31°
2026-05-06 02:25 9.03431 -79.41029 980 ft 152 kts 32°
2026-05-06 02:26 9.04346 -79.40454 945 ft 155 kts 31°
2026-05-06 02:26 9.05263 -79.39921 767 ft 153 kts 29°
2026-05-06 02:26 9.06204 -79.39384 509 ft 156 kts 30°
2026-05-06 02:26 9.07143 -79.38820 246 ft 159 kts 30°
2026-05-06 02:27 9.08050 -79.38267 143 ft 139 kts 31°
2026-05-06 02:27 9.08663 -79.37899 142 ft 65 kts 31°
2026-05-06 02:27 9.08888 -79.37762 142 ft 22 kts 30°
2026-05-06 02:27 9.09036 -79.37675 142 ft 26 kts 30°
2026-05-06 02:28 9.09199 -79.37576 142 ft 27 kts 30°
2026-05-06 02:28 9.09334 -79.37483 142 ft 14 kts 67°
2026-05-06 02:28 9.09297 -79.37381 142 ft 17 kts 121°
2026-05-06 02:28 9.09193 -79.37350 142 ft 18 kts 195°
2026-05-06 02:29 9.09066 -79.37389 142 ft 20 kts 196°
2026-05-06 02:29 9.08917 -79.37434 142 ft 22 kts 199°
2026-05-06 02:29 9.08778 -79.37513 142 ft 23 kts 211°
2026-05-06 02:29 9.08630 -79.37600 142 ft 26 kts 210°
2026-05-06 02:30 9.08478 -79.37708 142 ft 26 kts 226°
2026-05-06 02:30 9.08353 -79.37838 142 ft 25 kts 225°
2026-05-06 02:30 9.08232 -79.37964 142 ft 24 kts 225°
2026-05-06 02:30 9.08101 -79.38063 142 ft 22 kts 211°
2026-05-06 02:31 9.07965 -79.38145 142 ft 22 kts 210°
2026-05-06 02:31 9.07830 -79.38226 142 ft 22 kts 210°
2026-05-06 02:31 9.07695 -79.38307 142 ft 22 kts 210°
2026-05-06 02:31 9.07562 -79.38387 142 ft 22 kts 210°
2026-05-06 02:32 9.07428 -79.38467 142 ft 22 kts 210°
2026-05-06 02:32 9.07299 -79.38545 142 ft 20 kts 209°
2026-05-06 02:32 9.07190 -79.38599 142 ft 16 kts 209°
2026-05-06 02:32 9.07098 -79.38651 142 ft 14 kts 210°
2026-05-06 02:33 9.07033 -79.38673 142 ft 2 kts 140°
2026-05-06 02:33 9.07022 -79.38660 142 ft 4 kts 128°
2026-05-06 02:34 9.07009 -79.38638 142 ft 0 kts 120°
2026-05-06 02:34 9.07008 -79.38638 142 ft 0 kts 120°